Tracking 35030 objects as of 11-Aug-2026
HD Live streaming from Space Station
objects crossing your sky now

TITAN 34D TRANSTAGE DEB

Track TITAN 34D TRANSTAGE DEB now!


NORAD ID: 22669
Int'l Code: 1988-077E
Launch date: September 2, 1988
Source: United States (US)
Launch site: AIR FORCE EASTERN TEST RANGE (AFETR)

Note: This is SATELLITE DEBRIS
Your satellite tracking list
Your tracking list is empty




NASA's NSSDC Master Catalog

Two Line Element Set (TLE):
1 22669U 88077E   26222.40403501  .00000130  00000-0  56607-3 0  9997
2 22669  26.3916 189.9530 7338566  30.3833 356.5984  2.11783997 55262
Source of the keplerian elements: AFSPC